User: anonymous   Login
Location: ??
(35.1714°N, 128.2806°E)
Time: 12:20:24
(UTC+00:00)
Language:

SL-16 R/B - Orbit

View from above orbital plane
View from above orbital plane
View from above satellite
View from above satellite

Ground track
Ground track

The orbit data is extracted from the following two-line orbital elements,

1 31793U 07029B   21016.86136753  .00000137  00000-0  96280-4 0  9990
2 31793  70.9761 158.0668 0002615 277.7760 193.8149 14.14443911699831
Epoch (UTC): 16 January 2021 20:40:22
Eccentricity: 0.0002615
inclination: 70.9761°
perigee height: 842 km
apogee height: 846 km
right ascension of ascending node: 158.0668°
argument of perigee: 277.7760°
revolutions per day: 14.14443911
mean anomaly at epoch: 193.8149°
orbit number at epoch: 69983

The dashed part of the orbit path shows where the satellite is in the earth's shadow,  

DLR